| time (UTC) | temp F | wind direction | speed knots | gust knots | rain 1hr in | rain 24hr in | rain mn in | humidity % | barometer mb |
| 20260506015058 | 50 | 296 | 0.9 | 2.6 | 0.00 | 0.00 | 0.00 | 49 | 1009.8 |
| 20260506014558 | 50 | 312 | 0.9 | 2.6 | 0.00 | 0.00 | 0.00 | 49 | 1009.6 |
| 20260506014100 | 50 | 312 | 0.9 | 1.7 | 0.00 | 0.00 | 0.00 | 48 | 1009.7 |
| 20260506013557 | 50 | 285 | 0.9 | 2.6 | 0.00 | 0.00 | 0.00 | 48 | 1009.5 |
| 20260506013059 | 50 | 284 | 0.9 | 3.5 | 0.00 | 0.00 | 0.00 | 47 | 1009.4 |
| 20260506012557 | 50 | 283 | 0.9 | 3.5 | 0.00 | 0.00 | 0.00 | 48 | 1009.4 |
| 20260506012059 | 50 | 275 | 0.9 | 3.5 | 0.00 | 0.00 | 0.00 | 47 | 1009.4 |
| 20260506011601 | 51 | 269 | 1.7 | 3.5 | 0.00 | 0.00 | 0.00 | 47 | 1009.2 |
| 20260506011057 | 51 | 286 | 0.9 | 2.6 | 0.00 | 0.00 | 0.00 | 47 | 1009.2 |
| 20260506010557 | 51 | 0 | 0.9 | 2.6 | 0.00 | 0.00 | 0.00 | 46 | 1009.0 |
| 20260506010105 | 51 | 0 | 0.9 | 2.6 | 0.00 | 0.00 | 0.00 | 45 | 1008.9 |
| 20260506005557 | 52 | 280 | 0.9 | 2.6 | 0.00 | 0.00 | 0.00 | 44 | 1008.9 |
| 20260506005057 | 52 | 279 | 0.9 | 5.2 | 0.00 | 0.00 | 0.00 | 44 | 1008.8 |
| 20260506004607 | 52 | 275 | 1.7 | 5.2 | 0.00 | 0.00 | 0.00 | 44 | 1008.9 |
| 20260506004057 | 52 | 277 | 1.7 | 6.1 | 0.00 | 0.00 | 0.00 | 44 | 1008.8 |
| 20260506003558 | 53 | 271 | 1.7 | 6.1 | 0.00 | 0.00 | 0.00 | 43 | 1008.8 |
| 20260506003059 | 53 | 279 | 1.7 | 5.2 | 0.00 | 0.00 | 0.00 | 42 | 1008.8 |
| 20260506002559 | 53 | 266 | 1.7 | 5.2 | 0.00 | 0.00 | 0.00 | 42 | 1008.8 |
| 20260506002059 | 53 | 266 | 1.7 | 7.0 | 0.00 | 0.00 | 0.00 | 41 | 1008.8 |
| 20260506001608 | 53 | 279 | 1.7 | 7.0 | 0.00 | 0.00 | 0.00 | 41 | 1008.7 |
| 20260506001059 | 53 | 264 | 2.6 | 7.0 | 0.00 | 0.00 | 0.00 | 40 | 1008.7 |
| 20260506000601 | 54 | 267 | 1.7 | 6.1 | 0.00 | 0.00 | 0.00 | 40 | 1008.8 |
| 20260506000126 | 54 | 273 | 1.7 | 6.1 | 0.00 | 0.00 | 0.00 | 40 | 1008.7 |
| 20260505235601 | 54 | 289 | 1.7 | 8.7 | 0.00 | 0.00 | 0.00 | 40 | 1008.6 |
| 20260505235059 | 54 | 278 | 2.6 | 9.6 | 0.00 | 0.00 | 0.00 | 40 | 1008.7 |
| 20260505234617 | 54 | 273 | 3.5 | 9.6 | 0.00 | 0.00 | 0.00 | 39 | 1008.7 |
| 20260505234058 | 54 | 310 | 4.3 | 9.6 | 0.00 | 0.00 | 0.00 | 39 | 1008.8 |
| 20260505233600 | 54 | 277 | 2.6 | 13.0 | 0.00 | 0.00 | 0.00 | 39 | 1008.8 |
| 20260505233058 | 54 | 297 | 4.3 | 13.0 | 0.00 | 0.00 | 0.00 | 38 | 1008.9 |
| 20260505232559 | 54 | 269 | 7.0 | 13.9 | 0.00 | 0.00 | 0.00 | 37 | 1008.9 |
| 20260505232059 | 54 | 284 | 3.5 | 14.8 | 0.00 | 0.00 | 0.00 | 37 | 1008.8 |
| 20260505231601 | 55 | 275 | 6.1 | 14.8 | 0.00 | 0.00 | 0.00 | 37 | 1008.8 |
| 20260505231059 | 55 | 277 | 6.1 | 12.2 | 0.00 | 0.00 | 0.00 | 37 | 1008.8 |
| 20260505230559 | 55 | 290 | 4.3 | 11.3 | 0.00 | 0.00 | 0.00 | 37 | 1008.8 |
| 20260505230104 | 55 | 288 | 4.3 | 13.0 | 0.00 | 0.00 | 0.00 | 37 | 1008.9 |
| 20260505225602 | 55 | 298 | 4.3 | 13.0 | 0.00 | 0.00 | 0.00 | 37 | 1009.0 |
| 20260505225059 | 55 | 304 | 5.2 | 10.4 | 0.00 | 0.00 | 0.00 | 36 | 1009.0 |
| 20260505224603 | 55 | 311 | 6.1 | 13.0 | 0.00 | 0.00 | 0.00 | 37 | 1009.0 |
| 20260505224102 | 56 | 277 | 4.3 | 13.0 | 0.00 | 0.00 | 0.00 | 36 | 1008.9 |
| 20260505223559 | 56 | 242 | 3.5 | 11.3 | 0.00 | 0.00 | 0.00 | 36 | 1008.7 |
| 20260505223105 | 56 | 269 | 5.2 | 11.3 | 0.00 | 0.00 | 0.00 | 36 | 1008.8 |
| 20260505222559 | 56 | 293 | 5.2 | 12.2 | 0.00 | 0.00 | 0.00 | 37 | 1008.8 |
| 20260505222059 | 56 | 281 | 5.2 | 12.2 | 0.00 | 0.00 | 0.00 | 36 | 1008.9 |
| 20260505221602 | 56 | 237 | 5.2 | 12.2 | 0.00 | 0.00 | 0.00 | 37 | 1008.9 |
| 20260505221059 | 56 | 292 | 5.2 | 13.0 | 0.00 | 0.00 | 0.00 | 36 | 1008.9 |
| 20260505220559 | 56 | 317 | 5.2 | 13.0 | 0.00 | 0.00 | 0.00 | 36 | 1008.9 |
| 20260505220107 | 56 | 273 | 3.5 | 13.9 | 0.00 | 0.00 | 0.00 | 38 | 1008.9 |
| 20260505215603 | 56 | 267 | 3.5 | 13.9 | 0.00 | 0.00 | 0.00 | 37 | 1009.0 |
| 20260505215059 | 56 | 276 | 5.2 | 12.2 | 0.00 | 0.00 | 0.00 | 37 | 1009.0 |
| 20260505214612 | 56 | 313 | 6.1 | 14.8 | 0.00 | 0.00 | 0.00 | 36 | 1008.9 |
| 20260505214059 | 56 | 291 | 6.1 | 14.8 | 0.00 | 0.00 | 0.00 | 36 | 1008.9 |
| 20260505213558 | 56 | 288 | 7.8 | 14.8 | 0.00 | 0.00 | 0.00 | 35 | 1008.8 |
| 20260505213059 | 56 | 300 | 7.0 | 15.6 | 0.00 | 0.00 | 0.00 | 35 | 1008.9 |
| 20260505212559 | 57 | 257 | 6.1 | 15.6 | 0.00 | 0.00 | 0.00 | 34 | 1008.9 |
| 20260505212059 | 57 | 246 | 4.3 | 13.9 | 0.00 | 0.00 | 0.00 | 36 | 1008.9 |
| 20260505211645 | 56 | 314 | 3.5 | 12.2 | 0.00 | 0.00 | 0.00 | 36 | 1008.9 |
| 20260505211101 | 56 | 292 | 5.2 | 13.0 | 0.00 | 0.00 | 0.00 | 36 | 1008.9 |
| 20260505210558 | 56 | 303 | 6.1 | 13.0 | 0.00 | 0.00 | 0.00 | 35 | 1008.9 |
| 20260505210100 | 56 | 286 | 6.1 | 13.0 | 0.00 | 0.00 | 0.00 | 36 | 1008.9 |
| 20260505205559 | 56 | 302 | 6.1 | 13.0 | 0.00 | 0.00 | 0.00 | 35 | 1009.0 |
| 20260505205100 | 56 | 284 | 7.0 | 11.3 | 0.00 | 0.00 | 0.00 | 36 | 1009.0 |
| 20260505204615 | 56 | 282 | 6.1 | 14.8 | 0.00 | 0.00 | 0.00 | 35 | 1008.9 |
| 20260505204059 | 55 | 284 | 6.1 | 14.8 | 0.00 | 0.00 | 0.00 | 35 | 1008.9 |
| 20260505203601 | 56 | 259 | 7.0 | 13.9 | 0.00 | 0.00 | 0.00 | 35 | 1009.1 |
| 20260505203101 | 56 | 254 | 6.1 | 13.0 | 0.00 | 0.00 | 0.00 | 34 | 1009.2 |
| 20260505202601 | 56 | 298 | 5.2 | 12.2 | 0.00 | 0.00 | 0.00 | 32 | 1009.3 |
| 20260505202059 | 56 | 321 | 6.1 | 13.0 | 0.00 | 0.00 | 0.00 | 33 | 1009.2 |
| 20260505201559 | 56 | 289 | 6.1 | 13.0 | 0.00 | 0.00 | 0.00 | 32 | 1009.2 |
| 20260505201059 | 57 | 274 | 4.3 | 13.9 | 0.00 | 0.00 | 0.00 | 34 | 1009.1 |
| 20260505200559 | 57 | 300 | 6.1 | 13.9 | 0.00 | 0.00 | 0.00 | 34 | 1009.2 |
| 20260505195558 | 57 | 244 | 3.5 | 12.2 | 0.00 | 0.00 | 0.00 | 34 | 1009.2 |
| 20260505195059 | 57 | 283 | 5.2 | 14.8 | 0.00 | 0.00 | 0.00 | 36 | 1009.2 |
| 20260505194605 | 57 | 264 | 5.2 | 16.5 | 0.00 | 0.00 | 0.00 | 33 | 1009.3 |
| 20260505194059 | 57 | 254 | 6.1 | 16.5 | 0.00 | 0.00 | 0.00 | 30 | 1009.4 |
| 20260505193558 | 57 | 306 | 7.0 | 16.5 | 0.00 | 0.00 | 0.00 | 32 | 1009.3 |
| 20260505193102 | 57 | 271 | 5.2 | 19.1 | 0.00 | 0.00 | 0.00 | 31 | 1009.3 |
| 20260505192602 | 57 | 258 | 7.0 | 19.1 | 0.00 | 0.00 | 0.00 | 32 | 1009.4 |
| 20260505192059 | 57 | 302 | 7.0 | 15.6 | 0.00 | 0.00 | 0.00 | 31 | 1009.5 |
| 20260505191604 | 57 | 265 | 7.0 | 15.6 | 0.00 | 0.00 | 0.00 | 31 | 1009.6 |
| 20260505191058 | 57 | 286 | 4.3 | 13.0 | 0.00 | 0.00 | 0.00 | 35 | 1009.6 |
| 20260505190601 | 57 | 252 | 7.0 | 13.9 | 0.00 | 0.00 | 0.00 | 33 | 1009.6 |
| 20260505190114 | 56 | 248 | 3.5 | 14.8 | 0.00 | 0.00 | 0.00 | 35 | 1009.7 |
| 20260505185559 | 56 | 313 | 7.0 | 14.8 | 0.00 | 0.00 | 0.00 | 34 | 1009.5 |
| 20260505185059 | 56 | 311 | 7.8 | 14.8 | 0.00 | 0.00 | 0.00 | 33 | 1009.7 |
| 20260505184600 | 56 | 323 | 6.1 | 13.0 | 0.00 | 0.00 | 0.00 | 33 | 1009.5 |
| 20260505184059 | 56 | 259 | 6.1 | 13.0 | 0.00 | 0.00 | 0.00 | 34 | 1009.6 |
| 20260505183559 | 56 | 281 | 6.1 | 13.9 | 0.00 | 0.00 | 0.00 | 34 | 1009.6 |
| 20260505183101 | 56 | 306 | 7.8 | 13.9 | 0.00 | 0.00 | 0.00 | 34 | 1009.5 |
| 20260505182559 | 56 | 227 | 7.8 | 15.6 | 0.00 | 0.00 | 0.00 | 35 | 1009.4 |
| 20260505182058 | 56 | 269 | 7.8 | 15.6 | 0.00 | 0.00 | 0.00 | 34 | 1009.5 |
| 20260505181642 | 56 | 275 | 7.0 | 15.6 | 0.00 | 0.00 | 0.00 | 36 | 1009.5 |
| 20260505181059 | 56 | 341 | 7.8 | 15.6 | 0.00 | 0.00 | 0.00 | 35 | 1009.3 |
| 20260505180600 | 56 | 273 | 9.6 | 15.6 | 0.00 | 0.00 | 0.00 | 34 | 1009.3 |
| 20260505180108 | 56 | 262 | 6.1 | 12.2 | 0.00 | 0.00 | 0.00 | 38 | 1009.0 |
| 20260505175559 | 55 | 285 | 5.2 | 16.5 | 0.00 | 0.00 | 0.00 | 34 | 1009.0 |
| 20260505175059 | 55 | 265 | 9.6 | 16.5 | 0.00 | 0.00 | 0.00 | 35 | 1009.0 |
| 20260505174559 | 55 | 275 | 7.0 | 13.0 | 0.00 | 0.00 | 0.00 | 34 | 1008.9 |
| 20260505174059 | 55 | 274 | 5.2 | 18.2 | 0.00 | 0.00 | 0.00 | 37 | 1008.9 |
| 20260505173558 | 55 | 269 | 7.0 | 18.2 | 0.00 | 0.00 | 0.00 | 37 | 1008.9 |
| 20260505173101 | 54 | 267 | 6.1 | 18.2 | 0.00 | 0.00 | 0.00 | 35 | 1009.1 |
| 20260505172559 | 54 | 312 | 5.2 | 14.8 | 0.00 | 0.00 | 0.00 | 38 | 1009.0 |
| 20260505172058 | 54 | 257 | 5.2 | 14.8 | 0.00 | 0.00 | 0.00 | 36 | 1009.0 |
| 20260505171605 | 54 | 269 | 7.8 | 14.8 | 0.00 | 0.00 | 0.00 | 35 | 1009.0 |
| 20260505171059 | 54 | 329 | 6.1 | 14.8 | 0.00 | 0.00 | 0.00 | 36 | 1009.1 |
| 20260505170558 | 54 | 277 | 7.8 | 14.8 | 0.00 | 0.00 | 0.00 | 36 | 1009.2 |
| 20260505170100 | 54 | 280 | 5.2 | 13.9 | 0.00 | 0.00 | 0.00 | 39 | 1009.2 |
| 20260505165558 | 54 | 58 | 7.8 | 15.6 | 0.00 | 0.00 | 0.00 | 35 | 1009.2 |
| 20260505165058 | 55 | 294 | 7.0 | 15.6 | 0.00 | 0.00 | 0.00 | 38 | 1009.0 |
| 20260505164600 | 55 | 314 | 5.2 | 12.2 | 0.00 | 0.00 | 0.00 | 37 | 1009.0 |
| 20260505164059 | 54 | 288 | 5.2 | 13.0 | 0.00 | 0.00 | 0.00 | 39 | 1008.8 |
| 20260505163601 | 54 | 213 | 4.3 | 13.0 | 0.00 | 0.00 | 0.00 | 41 | 1008.7 |
| 20260505163101 | 54 | 267 | 6.1 | 13.0 | 0.00 | 0.00 | 0.00 | 38 | 1008.7 |
| 20260505162559 | 54 | 269 | 4.3 | 15.6 | 0.00 | 0.00 | 0.00 | 39 | 1008.9 |
| 20260505162100 | 54 | 302 | 6.1 | 15.6 | 0.00 | 0.00 | 0.00 | 38 | 1008.9 |
| 20260505161600 | 53 | 313 | 7.8 | 15.6 | 0.00 | 0.00 | 0.00 | 40 | 1008.8 |
| 20260505161101 | 53 | 279 | 4.3 | 13.0 | 0.00 | 0.00 | 0.00 | 40 | 1008.9 |
| 20260505160559 | 53 | 265 | 5.2 | 13.0 | 0.00 | 0.00 | 0.00 | 43 | 1008.8 |
| 20260505153100 | 51 | 302 | 6.1 | 11.3 | 0.00 | 0.00 | 0.00 | 42 | 1008.8 |
| 20260505152559 | 51 | 266 | 6.1 | 11.3 | 0.00 | 0.00 | 0.00 | 44 | 1008.9 |
| 20260505152058 | 51 | 284 | 5.2 | 12.2 | 0.00 | 0.00 | 0.00 | 44 | 1008.9 |
| 20260505151605 | 51 | 274 | 6.1 | 12.2 | 0.00 | 0.00 | 0.00 | 44 | 1008.9 |
| 20260505151106 | 50 | 247 | 4.3 | 11.3 | 0.00 | 0.00 | 0.00 | 45 | 1009.1 |
| 20260505150559 | 50 | 265 | 4.3 | 11.3 | 0.00 | 0.00 | 0.00 | 44 | 1009.2 |
| 20260505140559 | 49 | 238 | 4.3 | 10.4 | 0.00 | 0.00 | 0.00 | 51 | 1009.2 |
| 20260505140109 | 49 | 298 | 2.6 | 10.4 | 0.00 | 0.00 | 0.00 | 50 | 1009.3 |
| 20260505124600 | 47 | 266 | 2.6 | 7.0 | 0.00 | 0.00 | 0.00 | 52 | 1009.0 |
| 20260505124058 | 47 | 268 | 1.7 | 7.0 | 0.00 | 0.00 | 0.00 | 52 | 1009.0 |
| 20260505123558 | 47 | 283 | 1.7 | 5.2 | 0.00 | 0.00 | 0.00 | 52 | 1009.0 |
| 20260505123111 | 47 | 294 | 0.9 | 5.2 | 0.00 | 0.00 | 0.00 | 51 | 1009.1 |
| 20260505122559 | 47 | 279 | 1.7 | 7.0 | 0.00 | 0.00 | 0.00 | 51 | 1009.2 |
| 20260505122059 | 47 | 292 | 0.9 | 7.0 | 0.00 | 0.00 | 0.00 | 52 | 1009.2 |
| 20260505121559 | 47 | 284 | 3.5 | 7.0 | 0.00 | 0.00 | 0.00 | 51 | 1009.4 |
| 20260505121059 | 47 | 281 | 0.9 | 6.1 | 0.00 | 0.00 | 0.00 | 52 | 1009.3 |
| 20260505120602 | 47 | 0 | 0.9 | 6.1 | 0.00 | 0.00 | 0.00 | 53 | 1009.1 |
| 20260505120128 | 47 | 270 | 1.7 | 6.1 | 0.00 | 0.00 | 0.00 | 52 | 1009.3 |
| 20260505115559 | 47 | 288 | 1.7 | 7.8 | 0.00 | 0.00 | 0.00 | 52 | 1009.2 |
| 20260505115058 | 47 | 315 | 2.6 | 7.8 | 0.00 | 0.00 | 0.00 | 52 | 1009.3 |
| 20260505114600 | 47 | 306 | 3.5 | 7.8 | 0.00 | 0.00 | 0.00 | 53 | 1008.8 |
| 20260505114058 | 47 | 288 | 2.6 | 7.8 | 0.00 | 0.00 | 0.00 | 52 | 1008.6 |
| 20260505113600 | 47 | 297 | 4.3 | 7.8 | 0.00 | 0.00 | 0.00 | 54 | 1008.2 |
| 20260505113101 | 47 | 316 | 2.6 | 7.8 | 0.00 | 0.00 | 0.00 | 53 | 1007.8 |
| 20260505112559 | 47 | 304 | 1.7 | 7.8 | 0.00 | 0.00 | 0.00 | 53 | 1008.8 |
| 20260505112059 | 47 | 342 | 1.7 | 7.8 | 0.00 | 0.00 | 0.00 | 54 | 1007.7 |
| 20260505111603 | 47 | 22 | 1.7 | 7.0 | 0.00 | 0.00 | 0.00 | 54 | 1006.5 |
| 20260505111058 | 47 | 327 | 1.7 | 5.2 | 0.00 | 0.00 | 0.00 | 53 | 1007.0 |
| 20260505110558 | 47 | 327 | 0.9 | 4.3 | 0.00 | 0.00 | 0.00 | 53 | 1007.1 |
| 20260505110118 | 47 | 320 | 1.7 | 4.3 | 0.00 | 0.00 | 0.00 | 53 | 1007.4 |
| 20260505102103 | 48 | 328 | 4.3 | 10.4 | 0.00 | 0.00 | 0.00 | 51 | 1007.4 |
| 20260505101609 | 48 | 9 | 3.5 | 11.3 | 0.00 | 0.00 | 0.00 | 53 | 1007.0 |
| 20260505101058 | 48 | 13 | 4.3 | 11.3 | 0.00 | 0.00 | 0.00 | 53 | 1007.0 |
| 20260505100558 | 48 | 336 | 4.3 | 11.3 | 0.00 | 0.00 | 0.00 | 53 | 1006.7 |
| 20260505100100 | 48 | 328 | 3.5 | 9.6 | 0.00 | 0.00 | 0.00 | 53 | 1006.5 |
| 20260505095557 | 48 | 324 | 3.5 | 8.7 | 0.00 | 0.00 | 0.00 | 54 | 1006.5 |
| 20260505095100 | 48 | 17 | 2.6 | 8.7 | 0.00 | 0.00 | 0.00 | 54 | 1006.5 |
| 20260505094601 | 48 | 324 | 2.6 | 7.0 | 0.00 | 0.00 | 0.00 | 54 | 1006.6 |
| 20260505094057 | 48 | 304 | 1.7 | 7.8 | 0.00 | 0.00 | 0.00 | 54 | 1006.5 |
| 20260505093601 | 48 | 338 | 3.5 | 10.4 | 0.00 | 0.00 | 0.00 | 54 | 1006.4 |
| 20260505093059 | 48 | 326 | 3.5 | 10.4 | 0.00 | 0.00 | 0.00 | 54 | 1006.4 |
| 20260505092559 | 48 | 327 | 4.3 | 13.9 | 0.00 | 0.00 | 0.00 | 54 | 1006.5 |
| 20260505092059 | 48 | 342 | 7.0 | 13.9 | 0.00 | 0.00 | 0.00 | 54 | 1006.5 |
| 20260505091601 | 49 | 321 | 5.2 | 13.9 | 0.00 | 0.00 | 0.00 | 54 | 1006.5 |
| 20260505091058 | 49 | 331 | 4.3 | 13.9 | 0.00 | 0.00 | 0.00 | 54 | 1006.6 |
| 20260505090558 | 49 | 306 | 7.0 | 13.9 | 0.00 | 0.00 | 0.00 | 54 | 1006.1 |
| 20260505090100 | 49 | 310 | 6.1 | 12.2 | 0.00 | 0.00 | 0.00 | 54 | 1006.2 |
| 20260505085559 | 49 | 340 | 5.2 | 10.4 | 0.00 | 0.00 | 0.00 | 53 | 1006.0 |
| 20260505085059 | 49 | 327 | 5.2 | 9.6 | 0.00 | 0.00 | 0.00 | 52 | 1006.1 |
| 20260505084605 | 50 | 342 | 4.3 | 9.6 | 0.00 | 0.00 | 0.00 | 52 | 1005.9 |
| 20260505084057 | 50 | 315 | 5.2 | 11.3 | 0.00 | 0.00 | 0.00 | 51 | 1005.9 |
| 20260505083557 | 50 | 316 | 6.1 | 11.3 | 0.00 | 0.00 | 0.00 | 51 | 1005.5 |
| 20260505083112 | 50 | 338 | 4.3 | 11.3 | 0.00 | 0.00 | 0.00 | 51 | 1005.3 |
| 20260505082605 | 50 | 328 | 6.1 | 11.3 | 0.00 | 0.00 | 0.00 | 50 | 1005.3 |
| 20260505082103 | 51 | 327 | 4.3 | 9.6 | 0.00 | 0.00 | 0.00 | 50 | 1005.3 |
| 20260505081606 | 51 | 307 | 3.5 | 9.6 | 0.00 | 0.00 | 0.00 | 49 | 1005.3 |
| 20260505081059 | 51 | 314 | 2.6 | 9.6 | 0.00 | 0.00 | 0.00 | 49 | 1005.0 |
| 20260505080559 | 51 | 321 | 3.5 | 11.3 | 0.00 | 0.00 | 0.00 | 49 | 1005.0 |
| 20260505080110 | 52 | 318 | 6.1 | 11.3 | 0.00 | 0.00 | 0.00 | 48 | 1004.8 |
| 20260505075558 | 52 | 319 | 4.3 | 11.3 | 0.00 | 0.00 | 0.00 | 48 | 1004.6 |
| 20260505075102 | 52 | 327 | 3.5 | 13.9 | 0.00 | 0.00 | 0.00 | 47 | 1004.6 |
| 20260505074058 | 53 | 342 | 5.2 | 14.8 | 0.00 | 0.00 | 0.00 | 47 | 1004.2 |
| 20260505073559 | 53 | 338 | 7.0 | 20.0 | 0.00 | 0.00 | 0.00 | 46 | 1004.0 |
| 20260505073103 | 53 | 304 | 8.7 | 20.0 | 0.00 | 0.00 | 0.00 | 46 | 1003.8 |
| 20260505072558 | 54 | 61 | 7.8 | 22.6 | 0.00 | 0.00 | 0.00 | 46 | 1004.0 |
| 20260505072058 | 54 | 315 | 11.3 | 22.6 | 0.00 | 0.00 | 0.00 | 47 | 1004.1 |
| 20260505071559 | 54 | 338 | 8.7 | 15.6 | 0.00 | 0.00 | 0.00 | 48 | 1003.9 |
| 20260505071058 | 54 | 342 | 7.0 | 14.8 | 0.00 | 0.00 | 0.00 | 48 | 1003.6 |
| 20260505070558 | 54 | 342 | 6.1 | 14.8 | 0.00 | 0.00 | 0.00 | 48 | 1003.7 |
| 20260505070106 | 55 | 337 | 6.1 | 14.8 | 0.00 | 0.00 | 0.00 | 48 | 1003.7 |
| 20260505065558 | 55 | 317 | 3.5 | 8.7 | 0.00 | 0.00 | 0.00 | 47 | 1003.8 |
| 20260505065146 | 55 | 316 | 1.7 | 6.1 | 0.00 | 0.00 | 0.00 | 46 | 1003.5 |
| 20260505064653 | 55 | 301 | 0.9 | 7.8 | 0.00 | 0.00 | 0.00 | 46 | 1003.3 |
| 20260505064058 | 56 | 317 | 2.6 | 7.8 | 0.00 | 0.00 | 0.00 | 45 | 1003.3 |
| 20260505063558 | 56 | 338 | 3.5 | 8.7 | 0.00 | 0.00 | 0.00 | 44 | 1003.2 |
| 20260505063104 | 56 | 319 | 3.5 | 8.7 | 0.00 | 0.00 | 0.00 | 44 | 1003.3 |
| 20260505062558 | 56 | 5 | 2.6 | 9.6 | 0.00 | 0.00 | 0.00 | 44 | 1003.3 |
| 20260505062058 | 56 | 310 | 3.5 | 9.6 | 0.00 | 0.00 | 0.00 | 43 | 1003.3 |
| 20260505061600 | 57 | 305 | 4.3 | 13.0 | 0.00 | 0.00 | 0.00 | 43 | 1003.1 |
| 20260505061058 | 57 | 296 | 4.3 | 13.0 | 0.00 | 0.00 | 0.00 | 43 | 1003.2 |
| 20260505060606 | 57 | 321 | 4.3 | 13.0 | 0.00 | 0.00 | 0.00 | 43 | 1003.0 |
| 20260505060110 | 57 | 300 | 4.3 | 10.4 | 0.00 | 0.00 | 0.00 | 43 | 1003.0 |
| 20260505055558 | 57 | 314 | 4.3 | 10.4 | 0.00 | 0.00 | 0.00 | 42 | 1003.0 |
| 20260505055101 | 57 | 303 | 3.5 | 7.8 | 0.00 | 0.00 | 0.00 | 43 | 1003.0 |
| 20260505054602 | 58 | 331 | 1.7 | 8.7 | 0.00 | 0.00 | 0.00 | 42 | 1002.9 |
| 20260505054058 | 58 | 273 | 2.6 | 8.7 | 0.00 | 0.00 | 0.00 | 42 | 1003.0 |
| 20260505053557 | 58 | 281 | 2.6 | 8.7 | 0.00 | 0.00 | 0.00 | 42 | 1003.0 |
| 20260505053100 | 58 | 325 | 2.6 | 8.7 | 0.00 | 0.00 | 0.00 | 41 | 1003.1 |
| 20260505052558 | 58 | 319 | 2.6 | 8.7 | 0.00 | 0.00 | 0.00 | 41 | 1003.0 |
| 20260505052058 | 58 | 257 | 3.5 | 8.7 | 0.00 | 0.00 | 0.00 | 41 | 1002.9 |
| 20260505051610 | 58 | 290 | 2.6 | 8.7 | 0.00 | 0.00 | 0.00 | 40 | 1002.8 |
| 20260505051059 | 58 | 312 | 3.5 | 10.4 | 0.00 | 0.00 | 0.00 | 41 | 1002.6 |
| 20260505050558 | 59 | 282 | 2.6 | 10.4 | 0.00 | 0.00 | 0.00 | 41 | 1002.5 |
| 20260505041609 | 60 | 280 | 1.7 | 8.7 | 0.00 | 0.00 | 0.00 | 43 | 1002.1 |
| 20260505041101 | 61 | 243 | 2.6 | 8.7 | 0.00 | 0.00 | 0.00 | 43 | 1001.9 |
| 20260505040558 | 61 | 325 | 2.6 | 8.7 | 0.00 | 0.00 | 0.00 | 43 | 1001.9 |
| 20260505040107 | 61 | 252 | 2.6 | 8.7 | 0.00 | 0.00 | 0.00 | 43 | 1001.9 |
| 20260505035559 | 62 | 275 | 2.6 | 10.4 | 0.00 | 0.00 | 0.00 | 42 | 1001.7 |
| 20260505035058 | 62 | 303 | 3.5 | 10.4 | 0.00 | 0.00 | 0.00 | 42 | 1001.6 |
| 20260505034615 | 62 | 273 | 6.1 | 10.4 | 0.00 | 0.00 | 0.00 | 41 | 1001.4 |
| 20260505034058 | 63 | 271 | 3.5 | 10.4 | 0.00 | 0.00 | 0.00 | 41 | 1001.3 |
| 20260505033558 | 63 | 284 | 5.2 | 8.7 | 0.00 | 0.00 | 0.00 | 40 | 1001.2 |
| 20260505033102 | 63 | 297 | 3.5 | 8.7 | 0.00 | 0.00 | 0.00 | 40 | 1001.1 |
| 20260505032558 | 64 | 265 | 3.5 | 7.8 | 0.00 | 0.00 | 0.00 | 40 | 1001.0 |
| 20260505032057 | 64 | 286 | 4.3 | 9.6 | 0.00 | 0.00 | 0.00 | 39 | 1000.7 |
| 20260505031606 | 65 | 315 | 3.5 | 11.3 | 0.00 | 0.00 | 0.00 | 39 | 1000.9 |
| 20260505031058 | 65 | 325 | 4.3 | 11.3 | 0.00 | 0.00 | 0.00 | 38 | 1001.1 |
| 20260505030605 | 66 | 293 | 4.3 | 11.3 | 0.00 | 0.00 | 0.00 | 37 | 1001.2 |
| 20260505030115 | 66 | 259 | 6.1 | 13.9 | 0.00 | 0.00 | 0.00 | 37 | 1001.2 |
| 20260505025559 | 67 | 282 | 6.1 | 16.5 | 0.00 | 0.00 | 0.00 | 36 | 1001.1 |
| 20260505025102 | 67 | 299 | 6.1 | 16.5 | 0.00 | 0.00 | 0.00 | 37 | 1001.0 |
| 20260505024612 | 68 | 300 | 7.0 | 16.5 | 0.00 | 0.00 | 0.00 | 37 | 1000.8 |
| 20260505024058 | 68 | 292 | 6.1 | 13.9 | 0.00 | 0.00 | 0.00 | 38 | 1000.7 |
| 20260505023558 | 68 | 269 | 4.3 | 10.4 | 0.00 | 0.00 | 0.00 | 39 | 1000.6 |
| 20260505023101 | 69 | 285 | 4.3 | 13.9 | 0.00 | 0.00 | 0.00 | 39 | 1000.3 |
| 20260505022601 | 69 | 283 | 4.3 | 13.9 | 0.00 | 0.00 | 0.00 | 39 | 1000.4 |
| 20260505022058 | 69 | 310 | 6.1 | 16.5 | 0.00 | 0.00 | 0.00 | 39 | 1000.3 |
| 20260505021558 | 69 | 249 | 5.2 | 16.5 | 0.00 | 0.00 | 0.00 | 42 | 1000.2 |
| 20260505021057 | 69 | 275 | 9.6 | 16.5 | 0.00 | 0.00 | 0.00 | 43 | 1000.2 |
| 20260505020557 | 69 | 265 | 6.1 | 14.8 | 0.00 | 0.00 | 0.00 | 47 | 1000.1 |
| 20260505020108 | 70 | 243 | 6.1 | 13.9 | 0.00 | 0.00 | 0.00 | 48 | 999.8 |
| 20260505015558 | 70 | 249 | 7.8 | 13.9 | 0.00 | 0.00 | 0.00 | 48 | 999.6 |